Weather Roundup
Issued by NWS Corpus Christi, TX

Home | Current Version | Previous Version | Text Only | Print | Product List | Glossary On
Versions: 1 2 3 4 5 6 7 8 9 10 11 12 13 14 15 16 17 18 19 20 21 22 23 24 25 26 27 28 29 30 31 32 33 34 35 36 37 38 39 40 41 42 43 44 45 46 47 48 49 50
000
ASUS44 KCRP 010810
HRRCRP

SOUTH TEXAS REGIONAL WEATHER ROUNDUP
NATIONAL WEATHER SERVICE CORPUS CHRISTI TX
300 AM CDT WED JUN 01 2016


TXZ229>244-010900-
...CORPUS CHRISTI AREA OBSERVATIONS...

CITY           SKY/WX    TMP DP  RH WIND       PRES   REMARKS
CORPUS CHRISTI CLOUDY    75  69  81 SE3       29.79R
NAS CORPUS CHR CLOUDY    78  69  73 SE5       29.79R
ROCKPORT       CLOUDY    79  69  71 SE10      29.77S
KINGSVILLE NAS   N/A    N/A N/A N/A MISG      29.80R
ALICE          CLOUDY    72  70  93 MISG      29.80R
FALFURRIAS     CLOUDY    74  70  87 S6        29.79R
$$

...VICTORIA AREA OBSERVATIONS...

CITY           SKY/WX    TMP DP  RH WIND       PRES   REMARKS
VICTORIA       CLOUDY    71  69  93 CALM      29.82S
BEEVILLE       FAIR      64  64 100 CALM      29.81R
PLEASANTON     PTCLDY    67  67  97 CALM      29.86R
SAN ANTONIO    MOCLDY    68  66  93 CALM      29.86S
$$

...LAREDO AREA OBSERVATIONS...

CITY           SKY/WX    TMP DP  RH WIND       PRES   REMARKS
LAREDO         CLEAR     72  69  90 S10       29.82F
COTULLA        CLOUDY    74  71  91 N5        29.86R
DEL RIO        CLOUDY    72  69  90 SE3       29.88S
MCALLEN        TSTM      75  69  81 E20G25    29.75F
HEBBRONVILLE   PTCLDY    70  68  92 S5        29.83R
$$

...OTHER TEXAS OBSERVATIONS...

CITY           SKY/WX    TMP DP  RH WIND       PRES   REMARKS
BROWNSVILLE    TSTM      73  71  93 E12G22    29.87F
HOUSTON        CLOUDY    75  71  87 CALM      29.84R
COL. STATION   CLOUDY    70  68  93 NE6       29.85F
AUSTIN         FOG       67  67 100 NE5       29.87R VSB 1/4
WACO           CLOUDY    69  66  90 CALM      29.89R
FORT WORTH     CLOUDY    69  65  86 NE5       29.89R
WICHITA FALLS  CLOUDY    65  63  93 E6        29.90F
LUBBOCK        LGT RAIN  59  57  93 NW16      29.99F
EL PASO        MOCLDY    69  43  38 E8        29.99R
$$

...MARINE OBSERVATIONS...

STATION/POSITION TIME  SKY/WX   TEMP    WIND        PRES    VSBY  WAVE   SWELL
                                AIR SEA DIR/SP/G                  HT/PER HT/PER
                 (UTC)          (F)     (DEG/KT/KT) (MB)    (MI)  (FT/S) (FT/S)
PORT ARANSAS     0800            80 82  150/ 17/ 19 1008.9R
BUOY 90 E PORT A 0750            81 81  130/ 21/ 23 1008.4          3/ 5
BUOY 45 SE BAFFI 0750            79 82  160/ 31/ 39 1004.9F         4/ 6
BUOY 200 E PT IS 0750                                 N/A           3/ 5
BUOY 15 E GALVES 0750            80 81  150/ 17/ 21 1008.4F         3/ 5
$$




USA.gov is the U.S. government's official web portal to all federal, state and local government web resources and services.